Content
SEND FEEDBACK

Daily
Averages
Monthly
Summary
Mexico

PUEBLA - JARDINES DE SAN MANUEL, PUEBLA


Home > North America > Mexico > Puebla
Elevation: 6962 feet     Latitude: 19 00N     Longitude: 098 11W

WEATHER
 
SELECT A DAY
Number of Records: 121,150;   Date Range: 1/1/95 - 9/15/14
 
SHARE

PRINT THIS DATA

[ ← Previous Day ]
WEATHER ALMANAC - MAY 22, 2013
[ Next Day → ]
[ °C ]   °F
Weather ElementAverageHighLow
Temperature65.9 °F82 °F (3:40 pm)51.8 °F (6:43 am)
Dewpoint48.7 °F57 °F (3:45 am)43 °F (6:40 pm)
Humidity54.4 %92 % (6:45 am)21 % (3:40 pm)
Barometer30.09 in30.33 in (10:44 pm)29.59 in (3:40 pm)
Wind Speed6.8 mph16.1 mph (6:14 pm)
Wind Gust27.6 mph (6:14 pm)
Weather ElementAverage
Visibility5 mi
Wind DirectionS (175.7 °)

Weather ElementTotal
Precipitation---
Cooling Degree Days1.9 (Base 65)
Growing Degree Days16.9 (Base 50)
Averaged from 26 records on May 22, 2013
WEATHER CONDITIONS BREAKOUT
WIND DIRECTION BREAKOUT
WEATHER BY HOUR - MAY 22, 2013
[ °C ]   °F
Local TimeTemperatureDewpointHumidityBarometerVisibilityWind DirectionWind SpeedGust SpeedPrecipitationEventsConditions
3:45 AM62.0 °F57.0 °F77 %29.71 in3.0 miCalmMostly Cloudy
5:49 AM53.6 °F48.2 °F82 %30.17 in6.0 miNW (310°)3.5 mphScattered Clouds
6:43 AM51.8 °F46.4 °F82 %30.18 in6.0 miSSW (200°)2.3 mphPartly Cloudy
6:45 AM58.0 °F56.0 °F92 %29.74 in3.0 miCalm
7:44 AM55.4 °F46.4 °F72 %30.24 in6.0 miWNW (300°)2.3 mphPartly Cloudy
8:42 AM59.0 °F46.4 °F63 %30.26 in6.0 miNNW (330°)4.6 mphScattered Clouds
9:46 AM64.4 °F48.2 °F56 %30.27 in6.0 miENE (60°)4.6 mphPartly Cloudy
9:50 AM67.0 °F51.0 °F45 %29.81 in3.0 miCalmHaze
10:50 AM68.0 °F48.2 °F49 %30.26 in5.0 miESE (120°)3.5 mphClear
11:42 AM75.2 °F48.2 °F38 %30.26 in5.0 miSE (130°)4.6 mphPartly Cloudy
12:40 PM78.0 °F50.0 °F26 %29.75 in3.0 miSouth (180°)2.2 mphHaze
12:43 PM77.0 °F46.4 °F34 %30.25 in6.0 miSE (140°)4.6 mphPartly Cloudy
1:42 PM78.8 °F50.0 °F36 %30.22 in5.0 miSSW (210°)13.8 mphScattered Clouds
2:41 PM78.8 °F51.8 °F39 %30.19 in5.0 miSSW (200°)10.4 mphScattered Clouds
3:40 PM82.0 °F49.0 °F21 %29.59 in3.0 miSSE (160°)4.5 mphHaze
3:41 PM75.2 °F50.0 °F41 %30.17 in6.0 miSouth (190°)12.7 mphMostly Cloudy
4:47 PM73.4 °F50.0 °F44 %30.16 in5.0 miSW (220°)9.2 mphMostly Cloudy
5:41 PM68.0 °F44.6 °F43 %30.16 in5.0 miWest (280°)15.0 mph26.5 mphMostly Cloudy
6:14 PM64.4 °F46.4 °F52 %30.20 in5.0 miNE (40°)16.1 mph27.6 mphRainRain
6:40 PM67.0 °F43.0 °F30 %29.60 in3.0 miNorth13.4 mphHaze
6:41 PM59.0 °F46.4 °F63 %30.22 in6.0 miNNE (20°)13.8 mph25.3 mphRainLight Rain
7:46 PM59.0 °F48.2 °F67 %30.26 in6.0 miEast (100°)12.7 mphOvercast
8:42 PM59.0 °F48.2 °F67 %30.29 in7.0 miWest (270°)9.2 mphOvercast
9:50 PM59.0 °F48.2 °F67 %30.30 in7.0 miWest (280°)3.5 mphMostly Cloudy
10:00 PM59.0 °F51.0 °F69 %29.66 in3.0 miENE (70°)2.2 mph
10:44 PM60.8 °F46.4 °F59 %30.33 in7.0 miSW (230°)9.2 mphMostly Cloudy
Hourly data recorded from MMPB, located miles away from Puebla - Jardines de San Manuel, Puebla







STORIES FROM OUR PARTNERS